Truth Or Consequences, NM

8:15 AM MDT on May 26, 2017 (GMT -0600)
Truth Or Consequences Municipal

Weather History for KTCS - January, 2014

Change the Weather History Date:

Saturday, January 4, 2014

  Actual Average Record
Temperature  
Mean Temperature 48 °F -  
Max Temperature 65 °F 53 °F 65 °F (2014)
Min Temperature 31 °F 27 °F 18 °F (2000)
Degree Days  
Heating Degree Days 17    
Month to date heating degree days 84  
Since 1 July heating degree days 1503  
Moisture  
Dew Point 20 °F    
Average Humidity 40    
Maximum Humidity 63    
Minimum Humidity 17    
Precipitation  
Precipitation 0.00 in - 0.09 in (2016)
Month to date precipitation 0.00  
Year to date precipitation 0.00  
Sea Level Pressure  
Sea Level Pressure 29.81 in    
Wind  
Wind Speed 6 mph (SW)    
Max Wind Speed 22 mph    
Max Gust Speed 29 mph    
Visibility 10 miles    
Events      
T = Trace of Precipitation, MM = Missing Value Source: NWS Daily Summary

Daily Weather History Graph

Daily Weather History Graph

Search for Another Location

Airport or City:

Trip Planner

Search our weather history database for the weather conditions in past years. The results will help you decide how hot, cold, wet, or windy it might be!

Date:

Astronomy

Jan. 04, 2014 Rise Set
Actual Time 7:13 AM MST 5:15 PM MST
Civil Twilight 6:45 AM MST 5:42 PM MST
Nautical Twilight 6:15 AM MST 6:13 PM MST
Astronomical Twilight 5:44 AM MST 6:43 PM MST
Moon 9:33 AM MST (1/4) 9:24 PM MST (1/4)
Length of Visible Light 10h 56m
Length of Day
10h 02m
Waxing Crescent, 16% of the Moon is Illuminated
Jan 4
Waxing Crescent
Jan 7
First Quarter
Jan 15
Full
Jan 23
Last Quarter
Jan 30
New

Hourly Weather History & Observations

Time (MST) Temp. Windchill Dew Point Humidity Pressure Visibility Wind Dir Wind Speed Gust Speed Precip Events Conditions
12:53 AM 34.0 °F - 21.0 °F 59% 29.87 in 10.0 mi Calm Calm - N/A   Clear
1:53 AM 37.0 °F 32.4 °F 21.0 °F 52% 29.86 in 10.0 mi West 5.8 mph - N/A   Clear
2:53 AM 35.1 °F 30.1 °F 19.9 °F 54% 29.85 in 10.0 mi WSW 5.8 mph - N/A   Clear
3:53 AM 37.0 °F 31.6 °F 19.9 °F 50% 29.83 in 10.0 mi WSW 6.9 mph - N/A   Clear
4:53 AM 34.0 °F - 21.0 °F 59% 29.85 in 10.0 mi Calm Calm - N/A   Clear
5:53 AM 33.1 °F 30.0 °F 21.0 °F 61% 29.87 in 10.0 mi South 3.5 mph - N/A   Clear
6:53 AM 30.9 °F 26.2 °F 19.9 °F 64% 29.89 in 10.0 mi WSW 4.6 mph - N/A   Clear
7:53 AM 34.0 °F - 21.9 °F 61% 29.89 in 10.0 mi Calm Calm - N/A   Clear
8:53 AM 41.0 °F - 24.1 °F 51% 29.89 in 10.0 mi Calm Calm - N/A   Clear
9:53 AM 45.0 °F 42.6 °F 23.0 °F 42% 29.87 in 10.0 mi SSE 4.6 mph - N/A   Clear
10:53 AM 48.9 °F - 23.0 °F 36% 29.85 in 10.0 mi ESE 3.5 mph - N/A   Clear
11:53 AM 55.9 °F - 21.0 °F 26% 29.78 in 10.0 mi SSE 6.9 mph - N/A   Clear
12:53 PM 57.9 °F - 19.9 °F 23% 29.73 in 10.0 mi South 10.4 mph - N/A   Clear
1:53 PM 61.0 °F - 19.9 °F 21% 29.68 in 10.0 mi South 10.4 mph - N/A   Clear
2:53 PM 63.0 °F - 18.0 °F 18% 29.67 in 10.0 mi SSW 10.4 mph - N/A   Clear
3:53 PM 64.0 °F - 19.0 °F 18% 29.66 in 10.0 mi West 17.3 mph 26.5 mph N/A   Clear
4:53 PM 61.0 °F - 19.9 °F 21% 29.68 in 10.0 mi WSW 4.6 mph - N/A   Clear
5:53 PM 55.0 °F - 21.0 °F 27% 29.74 in 10.0 mi South 8.1 mph - N/A   Clear
6:53 PM 51.1 °F - 21.0 °F 31% 29.77 in 10.0 mi South 6.9 mph - N/A   Clear
7:53 PM 48.0 °F - 21.0 °F 34% 29.81 in 10.0 mi North 5.8 mph - N/A   Clear
8:53 PM 48.0 °F - 19.9 °F 33% 29.81 in 10.0 mi West 9.2 mph - N/A   Clear
9:53 PM 50.0 °F - 19.9 °F 31% 29.83 in 10.0 mi NW 4.6 mph - N/A   Clear
10:53 PM 39.0 °F 32.8 °F 17.1 °F 41% 29.91 in 10.0 mi NE 9.2 mph - N/A   Clear
11:53 PM 37.0 °F 29.3 °F 15.1 °F 41% 29.92 in 10.0 mi NE 11.5 mph - N/A   Clear